This is the latest recevied weather packets stored in our database for station/object DB7GV-8. If no packets are shown the sender has not sent any weather packets the latest 10 day(s).
| Time | Temp. | Humidity | Pressure | Rain* | Wind** | Luminosity | Snow |
|---|---|---|---|---|---|---|---|
| 1777934945 | 13.33° C | 75% | 1013.5 hPa | - | - | - | - |
| 1777930417 | 13.89° C | 72% | 1014.1 hPa | - | - | - | - |
| 1777929512 | 14.44° C | 71% | 1014.1 hPa | - | - | - | - |
| 1777926796 | 15° C | 68% | 1014.1 hPa | - | - | - | - |
| 1777924079 | 15° C | 65% | 1013.9 hPa | - | - | - | - |
| 1777923174 | 15.56° C | 63% | 1013.8 hPa | - | - | - | - |
| 1777922269 | 16.11° C | 61% | 1013.8 hPa | - | - | - | - |
| 1777919552 | 17.22° C | 56% | 1013.7 hPa | - | - | - | - |
| 1777918646 | 17.78° C | 54% | 1013.8 hPa | - | - | - | - |
| 1777917741 | 18.33° C | 53% | 1013.7 hPa | - | - | - | - |
| 1777915931 | 18.89° C | 51% | 1013.8 hPa | - | - | - | - |
| 1777915026 | 20° C | 50% | 1013.7 hPa | - | - | - | - |
| 1777914120 | 20° C | 49% | 1013.7 hPa | - | - | - | - |
| 1777913214 | 20.56° C | 48% | 1013.6 hPa | - | - | - | - |
| 1777912308 | 20.56° C | 47% | 1013.5 hPa | - | - | - | - |
| 1777911404 | 21.11° C | 43% | 1013.6 hPa | - | - | - | - |
| 1777910498 | 21.11° C | 37% | 1013.6 hPa | - | - | - | - |
| 1777908687 | 22.78° C | 36% | 1013.3 hPa | - | - | - | - |
| 1777907782 | 23.33° C | 34% | 1013.2 hPa | - | - | - | - |
| 1777902350 | 25.56° C | 30% | 1013.4 hPa | - | - | - | - |
| 1777901444 | 26.11° C | 30% | 1013.5 hPa | - | - | - | - |
| 1777900538 | 25.56° C | 30% | 1013.5 hPa | - | - | - | - |
| 1777897822 | 23.89° C | 31% | 1013.7 hPa | - | - | - | - |
| 1777896917 | 24.44° C | 30% | 1013.6 hPa | - | - | - | - |
| 1777894201 | 26.67° C | 27% | 1013.8 hPa | - | - | - | - |
* Rain since midnight (hover to see other rain measurements)
** Current wind speed in m/s (hover to see current wind gust speed)